Weather History for Walnut Ridge, AR

Change the Weather History Date:

Friday, January 4, 2013

  Actual Average Record
Temperature  
Mean Temperature 34 °F -  
Max Temperature 44 °F 44 °F 71 °F (1997)
Min Temperature 24 °F 30 °F 10 °F (1999)
Degree Days  
Heating Degree Days 31    
Moisture  
Dew Point 27 °F    
Average Humidity 78    
Maximum Humidity 100    
Minimum Humidity 39    
Precipitation  
Precipitation 0.00 in - - ()
Sea Level Pressure  
Sea Level Pressure 30.44 in    
Wind  
Wind Speed 3 mph (SW)    
Max Wind Speed 9 mph    
Max Gust Speed -    
Visibility 9 miles    
Events      
Averages and records for this station are not official NWS values.
T = Trace of Precipitation, MM = Missing Value Source: NWS Daily Summary

Daily Weather History Graph

Daily Weather History Graph

Search for Another Location

Airport:

Trip Planner

Search our weather history database for the weather conditions in past years. The results will help you decide how hot, cold, wet, or windy it might be!

Date:

Astronomy

Jan. 04, 2013 Rise Set
Actual Time 7:15 AM CST 5:02 PM CST
Civil Twilight 6:46 AM CST 5:31 PM CST
Nautical Twilight 6:14 AM CST 6:03 PM CST
Astronomical Twilight 5:43 AM CST 6:34 PM CST
Moon No Moon Rise 11:11 AM CST (1/4)
Length of Visible Light 10h 44m
Length of Day
9h 47m
Waning Gibbous, 55% of the Moon is Illuminated
Jan 4
Waning Gibbous
Jan 4
Last Quarter
Jan 11
New
Jan 18
First Quarter
Jan 26
Full

Hourly Weather History & Observations

Time (CST) Temp. Windchill Dew Point Humidity Pressure Visibility Wind Dir Wind Speed Gust Speed Precip Events Conditions
12:15 AM 30.2 °F - 28.4 °F 93% 30.43 in 5.0 mi Calm Calm - N/A   Clear
12:35 AM 28.4 °F - 28.4 °F 100% 30.43 in 5.0 mi Calm Calm - N/A   Clear
12:55 AM 28.4 °F - 26.6 °F 93% 30.42 in 5.0 mi Calm Calm - N/A   Clear
1:15 AM 28.4 °F - 26.6 °F 93% 30.42 in 3.0 mi Calm Calm - N/A   Clear
1:56 AM 28.4 °F 24.6 °F 26.6 °F 93% 30.43 in 3.0 mi West 3.5 mph - N/A   Clear
2:35 AM 28.4 °F 24.6 °F 26.6 °F 93% 30.44 in 4.0 mi West 3.5 mph - N/A   Clear
2:55 AM 26.6 °F 21.2 °F 24.8 °F 93% 30.45 in 7.0 mi West 4.6 mph - N/A   Clear
3:35 AM 26.6 °F 22.6 °F 24.8 °F 93% 30.44 in 10.0 mi WNW 3.5 mph - N/A   Clear
3:55 AM 26.6 °F - 24.8 °F 93% 30.44 in 10.0 mi Calm Calm - N/A   Clear
4:15 AM 26.6 °F - 24.8 °F 93% 30.43 in 10.0 mi Calm Calm - N/A   Clear
4:35 AM 26.6 °F - 23.0 °F 86% 30.43 in 9.0 mi Calm Calm - N/A   Clear
4:55 AM 26.6 °F - 24.8 °F 93% 30.42 in 10.0 mi Calm Calm - N/A   Clear
5:35 AM 26.6 °F - 24.8 °F 93% 30.43 in 7.0 mi Calm Calm - N/A   Clear
5:55 AM 26.6 °F - 24.8 °F 93% 30.44 in 10.0 mi Calm Calm - N/A   Clear
6:15 AM 24.8 °F 19.1 °F 23.0 °F 93% 30.44 in 9.0 mi SSW 4.6 mph - N/A   Clear
6:35 AM 26.6 °F 21.2 °F 24.8 °F 93% 30.44 in 9.0 mi SW 4.6 mph - N/A   Clear
7:15 AM 26.6 °F 19.1 °F 24.8 °F 93% 30.46 in 9.0 mi WSW 6.9 mph - N/A   Clear
7:35 AM 24.8 °F 16.9 °F 23.0 °F 93% 30.47 in 10.0 mi West 6.9 mph - N/A   Clear
7:55 AM 26.6 °F 20.0 °F 24.8 °F 93% 30.47 in 10.0 mi West 5.8 mph - N/A   Clear
8:15 AM 26.6 °F 21.2 °F 24.8 °F 93% 30.48 in 10.0 mi WNW 4.6 mph - N/A   Clear
8:55 AM 28.4 °F 24.6 °F 24.8 °F 86% 30.49 in 10.0 mi West 3.5 mph - N/A   Clear
9:15 AM 30.2 °F - 26.6 °F 86% 30.50 in 10.0 mi Calm Calm - N/A   Clear
9:35 AM 30.2 °F - 26.6 °F 86% 30.50 in 10.0 mi Calm Calm - N/A   Clear
9:55 AM 32.0 °F - 26.6 °F 80% 30.50 in 10.0 mi Calm Calm - N/A   Clear
10:15 AM 33.8 °F 30.8 °F 28.4 °F 81% 30.50 in 10.0 mi SW 3.5 mph - N/A   Clear
10:35 AM 35.6 °F 31.7 °F 26.6 °F 70% 30.50 in 10.0 mi SW 4.6 mph - N/A   Clear
10:55 AM 35.6 °F 32.8 °F 28.4 °F 75% 30.49 in 10.0 mi West 3.5 mph - N/A   Clear
11:15 AM 35.6 °F - 28.4 °F 75% 30.49 in 10.0 mi Calm Calm - N/A   Clear
11:35 AM 37.4 °F 34.9 °F 30.2 °F 75% 30.48 in 10.0 mi West 3.5 mph - N/A   Clear
11:55 AM 39.2 °F 34.2 °F 30.2 °F 70% 30.48 in 10.0 mi West 6.9 mph - N/A   Clear
12:15 PM 41.0 °F 35.2 °F 28.4 °F 61% 30.47 in 10.0 mi West 9.2 mph - N/A   Clear
12:36 PM 42.8 °F 38.0 °F 28.4 °F 57% 30.46 in 10.0 mi WSW 8.1 mph - N/A   Clear
12:55 PM 42.8 °F 38.0 °F 26.6 °F 53% 30.45 in 10.0 mi WSW 8.1 mph - N/A   Clear
1:15 PM 42.8 °F 38.0 °F 26.6 °F 53% 30.44 in 10.0 mi West 8.1 mph - N/A   Clear
1:35 PM 42.8 °F 39.3 °F 26.6 °F 53% 30.43 in 10.0 mi WSW 5.8 mph - N/A   Clear
1:55 PM 42.8 °F 39.3 °F 28.4 °F 57% 30.43 in 10.0 mi SW 5.8 mph - N/A   Clear
2:36 PM 44.6 °F 42.2 °F 26.6 °F 49% 30.42 in 10.0 mi West 4.6 mph - N/A   Clear
2:55 PM 44.6 °F 40.7 °F 24.8 °F 46% 30.42 in 10.0 mi West 6.9 mph - N/A   Clear
3:15 PM 44.6 °F 43.1 °F 24.8 °F 46% 30.42 in 10.0 mi WSW 3.5 mph - N/A   Clear
3:35 PM 44.6 °F 40.7 °F 23.0 °F 43% 30.42 in 10.0 mi West 6.9 mph - N/A   Clear
3:55 PM 44.6 °F 43.1 °F 21.2 °F 39% 30.42 in 10.0 mi WSW 3.5 mph - N/A   Clear
4:15 PM 44.6 °F 40.7 °F 24.8 °F 46% 30.42 in 10.0 mi SW 6.9 mph - N/A   Clear
4:55 PM 39.2 °F 35.9 °F 26.6 °F 61% 30.41 in 10.0 mi SW 4.6 mph - N/A   Clear
5:35 PM 39.2 °F 35.0 °F 24.8 °F 56% 30.41 in 10.0 mi SW 5.8 mph - N/A   Clear
5:55 PM 37.4 °F 33.8 °F 24.8 °F 60% 30.41 in 10.0 mi SW 4.6 mph - N/A   Clear
6:15 PM 39.2 °F 37.0 °F 26.6 °F 61% 30.41 in 10.0 mi SW 3.5 mph - N/A   Clear
6:35 PM 37.4 °F 34.9 °F 28.4 °F 70% 30.42 in 10.0 mi SW 3.5 mph - N/A   Clear
7:15 PM 35.6 °F 31.7 °F 28.4 °F 75% 30.41 in 10.0 mi South 4.6 mph - N/A   Clear
7:35 PM 33.8 °F 27.7 °F 26.6 °F 75% 30.41 in 10.0 mi SSE 6.9 mph - N/A   Clear
7:55 PM 32.0 °F 25.6 °F 28.4 °F 87% 30.42 in 10.0 mi South 6.9 mph - N/A   Clear
8:15 PM 33.8 °F 28.6 °F 28.4 °F 81% 30.41 in 10.0 mi South 5.8 mph - N/A   Clear
8:35 PM 33.8 °F 29.6 °F 28.4 °F 81% 30.41 in 10.0 mi South 4.6 mph - N/A   Clear
8:55 PM 33.8 °F 27.7 °F 28.4 °F 81% 30.41 in 10.0 mi South 6.9 mph - N/A   Clear
9:15 PM 32.0 °F 26.4 °F 28.4 °F 87% 30.41 in 10.0 mi South 5.8 mph - N/A   Clear
9:35 PM 32.0 °F 25.6 °F 28.4 °F 87% 30.41 in 10.0 mi South 6.9 mph - N/A   Clear
9:55 PM 32.0 °F 25.6 °F 28.4 °F 87% 30.41 in 10.0 mi SSW 6.9 mph - N/A   Clear
10:15 PM 32.0 °F 26.4 °F 28.4 °F 87% 30.41 in 10.0 mi SSW 5.8 mph - N/A   Clear
10:55 PM 33.8 °F 30.8 °F 28.4 °F 81% 30.39 in 10.0 mi SSW 3.5 mph - N/A   Clear
11:15 PM 30.2 °F 25.4 °F 28.4 °F 93% 30.39 in 10.0 mi South 4.6 mph - N/A   Clear
11:35 PM 30.2 °F 24.3 °F 28.4 °F 93% 30.39 in 10.0 mi SSW 5.8 mph - N/A   Clear
11:55 PM 32.0 °F 26.4 °F 28.4 °F 87% 30.40 in 10.0 mi SW 5.8 mph - N/A   Clear